sat.trackr.live / text

‹ back to catalog

HULIANWANG DIGUI-165

NORAD 68657 · 2026-076B

PAYLOAD ACTIVE UNKNOWN

§ Identity

Operator
Country
PRC
Launch date
2026-04-08
Launch site
TAISC
Launch vehicle
Mass (kg)
RCS (m²)

External: N2YO · Heavens-Above · Gunter

§ Orbital elements

Epoch: 2026-09-20T03:48:43.102080Z

Period
108.73 min
Inclination
86.5052°
Eccentricity
0.0001334
Mean motion
13.24410036 rev/d
Perigee alt
1,166.9 km
Apogee alt
1,168.9 km
Semi-major
7,546.1 km
B*
6.2892e-5
RAAN
11.8444°
Arg perigee
114.1190°
Mean anomaly
246.0084°
Rev number
2,194

§ Raw data

HULIANWANG DIGUI-1651 68657U 26076B   26263.15883220  .00000042  00000+0  62892-4 0  99972 68657  86.5052  11.8444 0001334 114.1190 246.0084 13.24410036 21944

JSON: /api/v1/satellites/68657 · /tle

For live sub-satellite position, see the globe view (requires WebGL).

§ Visibility from observer

Set your observer location to see the next 7 days of passes ≥ 10°. The values pass through the URL so the page stays shareable.

No JS? Fill the form by hand. The geolocation button needs JavaScript.